Location: ????
(38.5176°N, 24.1405°E)
Time: 00:22:51
(UTC+00:00)

Daily predictions for brighter satellites

Satellite Brightness Start Highest point End
(mag) Time Altitude Azimuth Time Altitude Azimuth Time Altitude Azimuth
Cosmos 2082 Rocket 4.4 02:10:56 16° NNE 02:12:56 19° NE 02:16:53 10° E
COSMOS 2455 4.0 02:13:53 37° NE 02:14:06 38° NE 02:19:39 10° ESE
USA 215 4.0 02:23:09 10° ESE 02:29:13 43° NNE 02:30:30 39° N
Cosmos 2278 Rocket 3.3 02:31:43 35° NNE 02:31:43 35° NNE 02:34:57 10° NNE
Cosmos 1741 Rocket 4.3 02:49:26 41° S 02:51:09 66° ESE 02:56:19 10° NNE
Cosmos 1833 Rocket 2.6 02:52:14 82° NNE 02:52:27 85° ENE 02:58:06 10° SSE
OAO 3 Rocket 3.8 02:53:34 50° SSE 02:53:34 50° SSE 02:57:57 10° E
Cosmos 2221 3.2 02:55:09 53° ENE 02:55:18 53° E 02:59:34 10° SSE
Hubble Space Telescope 3.0 03:10:31 16° S 03:11:10 17° S 03:13:49 10° SE
Cosmos 841 Rocket 4.4 03:08:28 16° N 03:12:19 46° ENE 03:17:15 10° SE
Cosmos 1763 Rocket 3.3 03:12:44 65° WNW 03:13:19 72° WSW 03:18:33 10° S
Envisat 3.2 03:16:08 10° NNE 03:21:13 70° ESE 03:26:16 10° S
SJ-12 4.0 03:19:57 10° NNE 03:24:06 78° ESE 03:28:13 10° S
Cosmos 1076 Rocket 3.4 03:23:31 10° S 03:27:53 87° W 03:32:17 10° N
NOSS 3-2 (A) 3.2 03:23:06 10° SSW 03:28:29 82° ESE 03:34:38 10° NE
NOSS 3-2 (C) 4.3 03:26:57 10° S 03:32:02 45° ESE 03:37:44 10° NE
Gblst 52 Del rocket 4.3 03:28:20 24° SW 03:32:07 88° SE 03:38:48 10° NE
COSMO-SKYMED 1 2.9 03:28:24 10° SSE 03:32:41 67° ENE 03:37:00 10° N
CBERS 1 LM4 rocket 4.5 03:28:09 10° NNE 03:32:58 78° ESE 03:37:54 10° S
SAR-Lupe-3 4.5 03:30:55 10° NNE 03:34:30 87° E 03:38:05 10° SSW
YAOGAN 6 2.4 03:31:27 10° N 03:35:07 68° WNW 03:38:45 10° SSW
CENTAUR R/B 2.6 03:29:49 10° SSW 03:35:21 72° ESE 03:41:58 10° NE
Cosmos 1464 Rocket 4.0 03:29:14 10° NNW 03:35:27 60° W 03:41:33 10° S
Cosmos 2084 Rocket 3.0 03:36:47 26° SW 03:38:53 88° WNW 03:42:45 10° NNE
FALCON 9 DEB 2.8 03:41:36 60° S 03:41:54 68° SE 03:44:45 10° NE
Helios 1B 4.4 03:40:05 10° S 03:44:24 81° WSW 03:48:40 10° NNW
Meteor 2-3 Rocket 3.7 03:40:40 10° S 03:46:16 84° E 03:51:58 10° N
H-2A R/B 2.7 03:43:46 10° N 03:47:21 51° WNW 03:50:57 10° SSW
Gbstr 26 Del rocket 4.5 03:45:48 18° NNW 03:47:40 25° NNE 03:51:15 10° E
FALCON 9 DEB 2.4 03:47:35 72° WSW 03:47:49 83° NW 03:50:40 10° NE
NOSS 8 (A) 4.3 03:48:26 24° SW 03:50:27 62° WNW 03:53:29 10° NNE
FALCON 9 DEB 3.5 03:49:05 19° SSW 03:50:52 50° SE 03:53:42 10° ENE
Landsat 5 3.6 03:49:20 10° SSE 03:53:48 90° ENE 03:58:20 10° NNW
Cosmos 1814 Rocket 4.2 03:49:19 10° NNW 03:54:26 68° ENE 03:59:31 10° SSE
Cosmos 2344 3.7 03:47:21 10° SW 03:54:38 50° NW 04:02:02 10° NNE
COSMOS 2406 3.7 03:52:21 25° WNW 03:54:51 36° WSW 03:59:58 10° S
CZ-4B R/B 4.2 03:53:09 10° NNE 03:56:31 37° E 03:59:50 10° SSE
Cosmos 2297 3.7 03:51:23 10° SSW 03:57:07 87° WNW 04:02:54 10° NNE
Cosmos 2082 Rocket 2.2 03:52:50 15° NNW 03:57:26 61° WSW 04:02:56 10° S
COSMOS 2455 3.5 03:57:05 22° WNW 03:59:55 34° WSW 04:05:14 10° S
USA 238 DEB 3.6 03:53:38 10° SSW 04:00:03 88° SE 04:06:50 10° NNE
USA 238 3.6 03:53:45 10° SSW 04:00:10 87° ESE 04:06:56 10° NE
Tiangong 2.9 03:59:52 18° SW 04:00:24 19° SSW 04:02:42 10° SSE
Cosmos 1842 Rocket 4.3 03:58:54 24° NW 04:00:34 31° W 04:04:28 10° SSW
CZ-4B R/B 4.4 04:04:55 10° E 04:06:38 13° ENE 04:08:20 10° NE
MOS 1-B Rocket 4.4 04:00:23 10° S 04:07:08 48° W 04:13:02 10° NNW
Meteor PRIRODA 4.0 04:05:12 10° NNE 04:08:48 66° E 04:12:22 10° S
USA 215 3.4 04:05:42 10° SSE 04:12:04 57° SW 04:17:51 13° NW
Cosmos 2278 Rocket 3.7 04:13:38 16° NW 04:14:01 16° NW 04:17:21 10° NNW
NOAA 11 4.1 04:10:40 10° N 04:16:08 82° WNW 04:21:37 10° SSW
Cosmos 2034 Rocket 4.4 04:11:06 10° NNW 04:16:47 39° W 04:22:31 10° SSW
CZ-2C R/B 3.0 04:11:52 10° S 04:17:12 47° W 04:22:30 10° NNW
Cosmos 1943 Rocket 2.2 04:12:04 10° SW 04:17:38 59° WNW 04:23:15 10° NNE
CZ-2C R/B 3.0 04:13:43 10° NNE 04:18:31 79° E 04:23:29 10° S
Cosmos 1862 4.2 04:14:57 10° S 04:18:47 52° E 04:22:37 10° NNE
SWAS 4.4 04:15:18 10° SSW 04:19:33 67° WNW 04:23:52 10° NNE
Cosmos 1782 2.7 04:15:52 10° N 04:19:49 77° W 04:23:45 10° S
SKYMED 2 4.2 04:16:52 10° SSW 04:20:47 33° W 04:24:45 10° NNW
IRAS Rocket 4.2 04:18:07 10° SSE 04:23:40 87° WSW 04:29:13 10° NNW
Okean 3 Rocket 4.2 04:20:49 10° S 04:25:15 63° E 04:29:44 10° NNE
Cosmos 2221 4.4 04:32:04 11° W 04:32:18 11° W 04:33:39 10° WSW
ADEOS 3.8 04:27:41 10° N 04:32:41 47° WNW 04:37:39 10° SW
Cosmos 1933 4.1 04:29:37 10° NNW 04:33:10 31° W 04:36:42 10° SSW
Cosmos 1833 Rocket 4.5 04:34:00 10° W 04:35:31 11° W 04:37:06 10° WSW
OAO 3 Rocket 3.8 04:31:36 10° W 04:36:26 54° S 04:41:13 10° ESE
Cosmos 2279 Rocket 4.1 04:32:02 10° N 04:38:16 86° E 04:44:26 10° S
Iridium 2 4.0 04:35:35 10° SSW 04:39:11 44° W 04:42:50 10° N
Meteor 1-31 Rocket 4.2 04:36:55 10° NNW 04:39:29 17° WNW 04:42:04 10° WSW
Cosmos 2151 4.2 04:37:17 10° WSW 04:40:28 20° WNW 04:43:41 10° NNW
Cosmos 1634 Rocket 4.2 04:38:58 10° NNW 04:45:03 52° W 04:51:03 10° SSW
CZ-4C R/B 4.2 04:45:02 10° SW 04:47:29 20° W 04:49:55 10° NW
AQUARIUS 4.4 04:43:52 10° NNE 04:48:23 78° E 04:52:52 10° S
BREEZE-M DEB (TANK) 3.9 04:46:21 10° NW 05:01:52 65° SW 05:06:16 10° SE
